Date String (YYYY-MM-DD hh:mm:ss) UTC,Instrument flags,absolute air pressure of the measurement (hPa),sample flow rate (lpm),inlet stack bypass flow (lpm),air temperature of the measurement (°C),ambient temperature measured by the external sensor (°C),aerosol sample conditioner tube jacket temperature (°C),OPC LED temperature (°C),internal box temperature (°C),relative humidity of the measurement (%),span deviation,mass concentration of particles derived from Lorenz-Mie calculation of OPC scattering (μg/m³),mass concentration of particles derived from Lorenz-Mie calculation of OPC scattering (μg/m³),mass concentration of particles derived from Lorenz-Mie calculation of OPC scattering (μg/m³)
DateTimeUTC,F1_M11,P_M11,Q1_M11,Q2_M11,T1_M11,T2_M11,T3_M11,T4_M11,T5_M11,U1_M11,ZSPAN_M11,X2_M11,X0_M11,X1_M11
2023-06-28 22:00:00,SystemResetWarning,0828.2,5.04,000.00,030.7,027.1,000.0,039.0,031.8,36.0,0002.9,0007.91,0024.19,0006.27
2023-06-28 22:01:00,SystemResetWarning,0828.2,4.98,000.00,031.3,027.5,000.0,039.0,031.9,38.0,0003.1,0006.93,0020.99,0005.51
2023-06-28 22:02:00,SystemResetWarning,0828.2,5.00,000.00,031.8,027.3,000.0,038.9,031.9,32.6,0003.1,0000.00,0000.00,0000.00
2023-06-28 22:03:00,SystemResetWarning,0828.2,4.98,000.00,032.1,026.0,000.0,038.9,031.7,28.6,0003.3,0000.00,0000.00,0000.00
2023-06-28 22:04:00,SystemResetWarning,0828.2,5.01,000.00,032.2,025.4,000.0,038.9,031.5,30.6,0003.5,0000.00,0000.00,0000.00
2023-06-28 22:05:00,SystemResetWarning,0828.2,5.01,000.00,032.2,025.6,000.0,039.0,031.3,32.1,0003.1,0000.00,0000.00,0000.00
2023-06-28 22:06:00,SystemResetWarning,0828.2,4.99,000.00,032.1,025.9,000.0,039.1,031.3,32.4,0000.0,0000.00,0000.00,0000.00
2023-06-28 22:07:00,SystemResetWarning,0828.2,5.00,000.00,032.0,026.4,000.0,039.2,031.3,32.4,-000.4,0000.00,0000.00,0000.00
2023-06-28 22:08:00,SystemResetWarning,0828.2,5.00,000.00,032.0,026.9,000.0,039.3,031.5,32.9,-000.9,0000.00,0000.00,0000.00
2023-06-28 22:12:00,SystemResetWarning,1005.1,5.00,006.04,014.3,014.2,000.0,022.2,012.0,34.8,0000.0,0000.00,0000.00,0000.00
2023-06-28 22:13:00,SystemResetWarning,0828.2,4.99,000.00,032.0,025.4,000.0,035.2,031.3,31.2,0000.0,0007.09,0010.28,0006.29
2023-06-28 22:14:00,SystemResetWarning,0828.1,4.99,000.00,031.8,025.7,000.0,036.8,031.1,32.4,0000.0,0007.47,0011.44,0006.78
2023-06-28 22:15:00,SystemResetWarning,0828.2,5.02,000.00,031.6,026.1,000.0,037.7,031.1,32.6,0000.0,0007.07,0012.66,0006.46
2023-06-28 22:16:00,SystemResetWarning,0828.2,5.00,000.00,031.5,026.6,000.0,038.2,031.2,32.8,0000.0,0006.71,0012.60,0006.20
2023-06-28 22:17:00,SystemResetWarning,0828.1,4.99,000.00,031.5,027.1,000.0,038.6,031.3,33.5,0000.0,0000.55,0001.63,0000.49
2023-06-28 22:18:00,SystemResetWarning,0828.1,5.01,000.00,031.5,027.4,000.0,038.8,031.4,33.1,0000.0,0003.54,0011.60,0003.28
2023-06-28 22:19:00,SystemResetWarning,0828.1,4.99,000.00,031.5,026.5,000.0,038.8,031.3,30.7,0000.0,0000.00,0000.00,0000.00
2023-06-28 22:20:00,SystemResetWarning,0828.1,5.00,000.00,031.4,025.3,000.0,038.8,031.1,29.4,0000.0,0000.00,0000.00,0000.00
2023-06-28 22:21:00,SystemResetWarning,0828.1,5.01,000.00,031.3,025.2,000.0,038.8,031.0,32.5,0000.0,0042.60,0164.32,0011.41
2023-06-28 22:22:00,SystemResetWarning,0828.1,5.01,000.00,031.1,025.6,000.0,038.9,030.9,34.0,-003.2,0995.62,3623.54,0228.16
2023-06-28 22:23:00,SystemResetWarning,0828.1,4.99,000.00,031.0,026.0,000.0,038.9,031.0,34.0,-004.9,1039.37,3712.68,0243.06
2023-06-28 22:24:00,SystemResetWarning,0828.1,5.00,000.00,030.9,026.5,000.0,038.9,031.1,34.2,-004.8,0454.50,1614.28,0108.61
2023-06-28 22:25:00,SystemResetWarning,0828.1,4.99,000.00,030.9,027.0,000.0,038.9,031.2,34.2,-004.1,0297.10,1052.42,0072.70
2023-06-28 22:26:00,SystemResetWarning,0828.1,4.99,000.00,030.9,027.4,000.0,038.9,031.3,34.2,-003.7,0223.83,0790.21,0055.85
2023-06-28 22:27:00,SystemResetWarning,0828.1,5.00,000.00,030.9,027.6,000.0,038.9,031.3,34.3,-003.7,0180.19,0632.93,0045.85
2023-06-28 22:28:00,SystemResetWarning,0828.1,5.01,000.00,030.9,026.7,000.0,038.8,031.3,32.1,-003.9,0151.33,0530.79,0039.24
2023-06-28 22:29:00,SystemResetWarning,0828.0,5.00,000.00,030.8,025.5,000.0,038.7,031.0,30.2,-003.6,0130.63,0457.54,0034.47
2023-06-28 22:30:00,SystemResetWarning,0828.1,5.00,000.00,030.7,025.3,000.0,038.6,031.0,33.5,-003.6,0114.88,0401.11,0030.80
2023-06-28 22:31:00,SystemResetWarning,0828.1,5.01,000.00,030.6,025.6,000.0,038.6,030.8,34.7,-003.5,0102.91,0358.00,0028.01
2023-06-28 22:32:00,SystemResetWarning,0828.2,5.01,000.00,030.5,026.0,000.0,038.6,030.8,34.9,-003.3,0093.22,0323.42,0025.75
2023-06-28 22:33:00,SystemResetWarning,0828.2,5.00,000.00,030.4,026.5,000.0,038.6,030.9,34.9,-001.6,0048.26,0162.15,0015.44
2023-06-28 22:34:00,SystemResetWarning,0828.2,4.99,000.00,030.4,027.0,000.0,038.6,031.0,34.9,0000.0,0008.95,0022.73,0006.35
2023-06-28 22:35:00,SystemResetWarning,0828.2,4.98,000.00,030.4,027.4,000.0,038.6,031.1,35.0,0000.0,0008.35,0020.78,0006.18
2023-06-28 22:36:00,SystemResetWarning,0828.2,5.04,000.00,030.5,027.3,000.0,038.6,031.2,34.4,0000.0,0007.93,0019.12,0006.07
2023-06-28 22:37:00,SystemResetWarning,0828.2,4.96,000.00,030.7,026.0,000.0,038.5,031.2,33.2,0000.0,0007.81,0019.66,0006.11
2023-06-28 22:38:00,SystemResetWarning,0828.1,5.01,000.00,030.7,025.3,000.0,038.4,031.0,33.4,0000.0,0007.85,0021.90,0006.21
2023-06-28 22:39:00,SystemResetWarning,0828.1,5.01,000.00,030.6,025.4,000.0,038.4,030.8,33.0,0000.1,0008.07,0024.29,0006.36
2023-06-28 22:40:00,SystemResetWarning,0828.2,4.99,000.00,030.5,025.8,000.0,038.4,030.8,34.0,-000.6,0008.42,0024.93,0006.54
2023-06-28 22:41:00,SystemResetWarning,0828.1,5.00,000.00,030.5,026.3,000.0,038.5,030.9,34.2,0000.4,0008.81,0026.21,0006.79
2023-06-28 22:42:00,SystemResetWarning,0828.1,5.00,000.00,030.5,026.7,000.0,038.5,031.0,33.7,0000.2,0009.22,0027.89,0007.03
2023-06-28 22:43:00,SystemResetWarning,0828.2,4.98,000.00,030.5,027.2,000.0,038.5,031.1,32.2,0000.0,0009.62,0029.66,0007.24
2023-06-28 22:44:00,SystemResetWarning,0828.2,5.00,000.00,030.5,027.5,000.0,038.5,031.2,30.9,-000.0,0009.95,0029.50,0007.44
2023-06-28 22:45:00,SystemResetWarning,0828.2,4.99,000.00,030.5,026.8,000.0,038.5,031.1,30.8,-000.4,0010.25,0029.69,0007.64
2023-06-28 22:46:00,SystemResetWarning,0828.1,5.00,000.00,030.4,025.6,000.0,038.4,030.9,30.8,-000.9,0010.58,0031.11,0007.83
2023-06-28 22:47:00,SystemResetWarning,0828.0,5.01,000.00,030.4,025.3,000.0,038.3,030.8,30.8,-000.6,0010.90,0032.69,0008.01
2023-06-28 22:48:00,SystemResetWarning,0828.1,5.01,000.00,030.2,025.5,000.0,038.3,030.7,31.4,-000.3,0010.90,0031.57,0008.01
2023-06-28 22:49:00,SystemResetWarning,0828.1,5.00,000.00,030.2,026.0,000.0,038.3,030.7,30.9,0000.2,0010.79,0030.34,0007.97
2023-06-28 22:50:00,SystemResetWarning,0828.0,5.00,000.00,030.1,026.5,000.0,038.3,030.8,30.8,0000.2,0010.60,0028.96,0007.92
2023-06-28 22:51:00,SystemResetWarning,0827.9,4.99,000.00,030.1,026.9,000.0,038.3,030.9,31.6,0000.2,0010.45,0028.85,0007.87
2023-06-28 22:52:00,SystemResetWarning,0827.8,4.99,000.00,030.1,027.3,000.0,038.4,031.0,31.4,0000.1,0010.35,0029.33,0007.80
2023-06-28 22:53:00,SystemResetWarning,0827.9,4.99,000.00,030.1,027.3,000.0,038.3,031.1,31.3,0000.0,0010.33,0030.39,0007.75
2023-06-28 22:54:00,SystemResetWarning,0827.8,5.00,000.00,030.1,026.1,000.0,038.2,030.8,31.5,0000.3,0010.22,0030.18,0007.72
2023-06-28 22:55:00,SystemResetWarning,0827.8,5.00,000.00,030.0,025.2,000.0,038.1,030.7,32.1,0000.2,0010.21,0029.69,0007.71
2023-06-28 22:56:00,SystemResetWarning,0827.7,5.01,000.00,029.9,025.3,000.0,038.1,030.5,32.8,-000.3,0010.22,0031.24,0007.69
2023-06-28 22:57:00,SystemResetWarning,0827.8,5.01,000.00,029.8,025.6,000.0,038.1,030.5,32.9,-000.2,0010.14,0033.47,0007.65
2023-06-28 22:58:00,SystemResetWarning,0827.8,4.99,000.00,029.8,026.1,000.0,038.1,030.6,33.3,-000.8,0010.07,0035.29,0007.63
2023-06-28 22:59:00,SystemResetWarning,0827.8,5.00,000.00,029.8,026.6,000.0,038.1,030.7,33.6,-001.1,0010.04,0035.96,0007.64
